Skip Page Navigation
NASA JPL Caltech
NASA Logo - Jet Propulsion Laboratory + View the NASA Portal
+ Center for Near-Earth Object Studies
JPL Home Earth Solar System Stars & Galaxies Technology
JPL Solar System Dynamics
BODIES ORBITS EPHEMERIDES TOOLS PHYSICAL DATA DISCOVERY FAQ SITE MAP
IMPORTANT: The SSD Announcement email list is now available. Major changes are coming in the near future, including possible hostname and/or URL changes. To be notified of such changes, subscribe to this email list.

Please visit this page for more details.


JPL Small-Body Database Browser
Search: [ help ]  
523910 (1997 SY14)
Classification: Main-belt Asteroid          SPK-ID: 2523910
Ephemeris | Orbit Diagram | Orbital Elements | Mission Design | Physical Parameters | Discovery Circumstances ]

[ show orbit diagram ]
Orbital Elements at Epoch 2459000.5 (2020-May-31.0) TDB
Reference: JPL 9 (heliocentric ecliptic J2000)
 Element Value Uncertainty (1-sigma)   Units 
e .1067992820746229 5.4273e-08  
a 2.258930586259386 1.6477e-08 au
q 2.017678421390476 1.2183e-07 au
i 4.905185453598723 7.7671e-06 deg
node 226.9974979482429 9.2216e-05 deg
peri 210.4843674410232 0.00010262 deg
M 194.7810864108565 4.6455e-05 deg
tp 2459569.628084419339
(2021-Dec-21.12808442)
0.00016245 TDB
period 1240.088715874626
3.40
1.3568e-05
3.715e-08
d
yr
n .2903018109846233 3.1762e-09 deg/d
Q 2.500182751128295 1.8236e-08 au
  Orbit Determination Parameters
   # obs. used (total)      103  
   data-arc span      7823 days (21.42 yr)  
   first obs. used      1997-09-28  
   last obs. used      2019-02-28  
   planetary ephem.      DE431  
   SB-pert. ephem.      SB431-N16  
   condition code      0  
   norm. resid. RMS      .702  
   source      ORB  
   producer      Otto Matic  
   solution date      2019-May-30 10:46:51  

Additional Information
 Earth MOID = 1.03452 au 
 Jupiter MOID = 2.71034 au 
 T_jup = 3.609 
[ show covariance matrix ]

Ephemeris | Orbit Diagram | Orbital Elements | Mission Design | Physical Parameters | Discovery Circumstances ]

Physical Parameter Table
Parameter Symbol Value Units Sigma Reference Notes
absolute magnitude H 18.0   .26665 MPO457190 autocmod 2.6n

523910 (1997 SY14)          Discovered 1997-Sep-28 by Spacewatch at Kitt Peak
Reference: Last Updated: 2019-05-29

Alternate Designations
 1997 SY14 = 2011 YG22 = 2014 UG181 = 2016 EG54 
Ephemeris | Orbit Diagram | Orbital Elements | Mission Design | Physical Parameters | Discovery Circumstances ]
ABOUT SSD CREDITS/AWARDS PRIVACY/COPYRIGHT GLOSSARY LINKS
FirstGov 2020-Feb-29 14:11 UT
(server date/time)  
NASA Home Page
Site Manager:   Ryan S. Park
Webmaster  Alan B. Chamberlin